Theta_e
323 323 323 322 321 320 319 319 319 318 318 318 319 319 319 318 318 318 318 319 319 320 320 321 324 325 318 313 314 331 348 346 334 324 320 318 316 320 318 319 319 315 318 318 320 319 319
323 323 323 322 320 319 319 319 318 318 318 318 318 318 317 317 317 317 317 317 317 318 319 322 325 324 319 308 326 329 325 328 326 322 322 319 314 319 319 318 315 319 319 319 319 318 321
323 323 323 322 320 320 319 319 319 318 318 317 317 317 317 317 317 317 317 316 316 317 320 324 327 321 314 313 328 326 324 325 326 325 318 319 319 316 317 316 322 321 315 318 319 321 319
324 323 322 321 321 320 319 319 319 318 318 317 317 316 316 316 316 316 317 316 316 319 322 326 329 318 311 323 324 327 327 327 327 324 321 321 320 316 315 318 319 315 316 309 317 319 321
323 323 322 322 321 320 319 319 318 318 318 317 316 315 315 316 316 316 316 315 318 323 325 326 319 314 311 327 322 325 325 324 325 323 322 326 318 314 315 311 308 311 304 308 313 318 322
323 323 322 322 321 319 318 318 318 318 318 317 316 315 314 315 315 315 314 315 322 322 323 321 322 312 315 317 323 325 326 327 323 321 318 316 313 308 312 306 301 305 306 305 309 314 319
323 323 323 322 321 320 319 318 318 318 317 317 316 314 314 314 315 314 310 313 310 311 312 311 312 315 321 324 325 321 324 324 321 317 309 313 307 305 306 308 311 311 307 307 313 318 315
323 322 321 322 321 319 319 318 318 317 317 316 316 315 314 314 314 313 310 311 309 310 304 314 315 316 319 321 317 319 322 316 315 310 312 310 305 311 312 312 313 310 308 306 315 318 315
321 320 319 320 319 318 318 318 317 317 316 315 314 314 314 314 312 315 312 313 314 315 304 311 315 314 314 316 315 316 318 316 313 310 310 307 311 318 313 309 311 308 308 307 310 313 315
319 319 319 318 318 318 318 318 317 317 316 315 313 313 313 312 312 312 311 314 313 316 300 309 311 313 316 314 313 321 321 317 312 308 310 308 313 313 311 311 308 302 312 313 313 307 302
318 318 318 317 318 317 316 316 316 316 315 314 313 313 313 312 308 309 314 314 313 314 295 311 309 316 315 312 313 317 323 317 310 310 310 307 309 308 307 310 311 308 314 312 313 308 306
316 317 317 317 317 316 315 314 315 315 314 313 312 312 311 311 311 315 318 314 312 301 297 306 308 307 307 311 312 316 317 319 318 311 311 310 314 311 309 313 312 316 311 311 308 306 300
315 315 316 316 316 315 315 314 315 315 314 313 312 311 309 311 307 312 315 311 300 298 314 304 303 305 305 307 309 312 312 309 304 302 302 308 310 312 314 308 310 307 304 297 295 296 297
313 314 315 316 315 315 314 314 314 314 313 312 310 308 312 315 317 315 313 306 299 311 308 312 308 306 303 307 308 310 309 305 310 308 302 300 300 309 315 311 305 305 306 298 294 293 296
312 313 314 315 315 315 314 314 314 313 312 310 308 312 314 319 319 317 309 302 305 310 313 310 307 302 302 305 307 307 307 306 310 309 302 301 303 312 315 314 311 306 303 307 302 300 297
311 312 313 314 314 315 314 314 314 314 312 309 306 310 315 320 323 315 306 303 311 316 314 312 305 307 301 303 304 304 306 312 311 313 311 306 299 310 315 316 315 312 312 300 302 293 294
310 311 312 313 314 314 314 314 313 313 310 308 310 311 318 321 321 311 301 306 311 316 316 312 311 310 307 306 305 304 307 311 314 312 310 306 304 305 313 309 307 307 305 308 303 302 296
309 309 311 312 313 314 314 313 313 312 309 309 311 305 322 321 306 308 302 309 309 314 316 314 314 315 313 314 306 306 307 311 316 316 311 310 307 301 308 313 314 312 309 308 302 299 303
308 309 310 311 312 313 313 313 313 313 310 305 306 311 319 320 301 302 309 312 315 314 314 316 315 317 316 312 304 308 314 320 318 315 312 316 305 299 304 306 312 310 310 308 306 305 300
308 309 309 310 310 312 312 312 313 312 311 307 306 305 310 314 311 306 306 308 312 315 314 316 315 317 314 311 310 310 312 317 321 320 321 322 311 308 300 303 308 307 312 311 304 298 300
307 307 308 308 309 310 311 312 312 311 311 308 309 307 315 307 309 312 310 310 310 312 314 315 314 315 316 309 315 313 318 315 318 318 315 319 309 308 310 312 311 310 311 309 305 305 304
306 306 307 307 308 309 310 312 312 312 310 308 305 308 311 308 315 313 310 309 310 313 314 311 312 316 319 315 314 311 316 314 311 315 311 316 306 311 309 312 310 310 310 309 308 310 308
305 305 306 306 307 308 309 311 312 312 311 312 316 315 311 307 309 308 308 311 312 313 316 318 317 315 317 320 321 319 320 320 317 313 310 312 310 306 301 309 309 305 308 310 310 312 313
304 304 305 305 306 307 308 310 312 313 313 309 311 310 308 305 308 307 311 313 310 311 313 318 319 319 326 329 322 319 314 319 319 313 313 312 310 307 302 306 297 309 316 315 313 317 320
304 304 305 305 305 306 307 309 311 313 314 309 309 309 308 303 308 310 310 313 316 317 314 316 319 328 327 322 311 308 307 312 315 317 318 313 311 304 298 299 306 309 315 314 313 316 322
303 304 305 305 305 306 307 307 309 312 314 311 310 314 313 306 307 310 308 316 313 314 315 316 319 327 323 314 308 302 299 308 308 311 315 313 313 307 301 297 300 311 318 320 318 309 322
304 304 304 304 305 305 306 307 308 310 314 312 309 312 312 305 310 309 307 308 316 315 314 320 319 321 320 310 305 301 301 313 304 303 305 306 309 304 301 300 311 319 321 321 306 310 322
304 304 304 304 304 304 305 307 308 309 313 312 308 312 313 308 308 310 311 308 308 312 310 315 317 320 315 306 304 303 304 308 307 309 307 306 306 303 307 303 302 320 321 317 321 323 322
304 305 305 303 304 304 305 306 307 309 312 314 305 314 317 313 308 314 314 314 312 311 311 315 314 320 330 325 319 317 311 310 307 301 312 304 310 307 310 310 318 317 319 327 326 321 319
Wind_Speed
12 13 14 15 15 16 16 17 18 19 20 20 20 21 23 21 21 22 23 20 20 17 16 13 11 10 3 2 10 7 8 7 4 3 7 8 7 4 4 12 6 8 5 7 10 4 7
11 12 13 14 15 16 17 17 17 18 19 20 21 20 22 21 22 21 23 21 20 18 14 12 9 7 2 5 4 11 8 7 8 6 9 8 6 7 7 4 4 8 11 13 8 6 4
10 12 13 14 15 15 16 17 18 18 20 20 21 21 23 23 23 22 23 23 20 19 13 9 7 4 5 12 7 11 10 7 9 9 8 10 10 7 9 3 7 14 11 13 12 12 5
9 11 11 12 13 15 16 17 18 20 19 20 21 23 25 25 25 24 23 24 23 19 10 6 2 2 8 5 6 9 10 10 11 11 9 11 8 7 4 3 8 8 7 3 12 11 8
8 10 11 12 13 14 16 17 18 19 20 21 22 23 24 26 26 25 25 29 23 14 6 5 2 3 8 2 3 9 7 7 8 9 8 11 6 8 11 5 4 3 3 9 9 9 7
9 10 10 12 12 13 16 18 18 19 21 21 22 23 25 27 28 25 28 21 6 10 4 5 7 4 7 7 7 8 7 5 7 8 10 5 8 5 9 3 4 7 6 5 5 9 17
9 10 11 12 13 14 15 17 19 19 21 22 22 24 26 28 30 23 17 8 7 4 2 8 4 8 5 10 5 2 4 6 6 5 7 10 6 6 9 5 5 6 3 6 9 19 21
7 9 11 13 14 14 15 17 19 20 21 22 23 25 28 30 31 29 3 5 5 7 9 11 14 17 16 7 6 4 4 4 5 8 9 10 6 4 2 8 5 7 6 5 15 12 14
8 9 10 12 13 14 15 17 18 20 22 22 23 24 26 31 35 9 7 7 7 8 3 9 10 9 5 1 4 5 6 5 7 10 12 7 13 16 9 8 4 2 9 6 6 7 7
8 9 10 11 12 14 16 17 19 20 23 23 23 24 23 31 6 8 6 9 8 6 3 7 9 8 6 4 5 10 10 8 4 8 9 6 11 19 17 9 8 6 8 9 9 5 1
7 8 10 11 12 12 14 17 19 20 22 24 23 23 22 6 7 6 9 10 9 6 3 9 9 7 8 9 2 4 11 4 7 9 5 10 11 16 17 11 6 1 8 6 4 6 7
6 8 9 10 11 13 14 16 19 21 21 24 24 23 18 1 4 10 14 9 5 2 6 5 6 9 8 9 8 4 5 6 4 7 10 10 12 8 11 14 6 2 6 6 7 4 1
6 8 9 10 11 13 15 16 18 21 22 25 26 29 11 5 6 7 12 6 3 4 4 9 6 7 10 8 7 7 6 2 3 2 4 11 8 12 14 8 9 3 7 4 6 4 7
6 7 9 10 11 13 15 16 18 21 23 25 29 30 7 7 8 7 4 4 3 11 4 3 10 11 8 7 9 9 5 2 7 6 2 5 12 9 17 18 11 1 9 6 4 4 3
5 7 9 10 11 13 14 15 18 21 24 24 28 4 5 7 12 4 4 2 5 8 11 12 3 8 8 10 7 10 9 7 7 8 8 3 7 13 16 5 11 9 5 7 4 2 5
4 7 9 10 11 12 14 15 18 22 26 23 6 5 6 5 7 4 2 6 6 9 7 8 8 5 9 10 9 7 9 10 11 7 6 9 3 5 6 11 13 8 1 7 5 3 3
4 6 8 9 11 11 13 15 18 22 27 25 2 4 3 6 5 3 3 7 12 12 4 5 8 8 8 7 13 8 8 6 9 6 3 2 4 6 6 2 4 6 5 9 3 2 4
2 5 7 10 11 11 13 14 16 19 29 8 4 4 5 3 2 3 4 6 7 10 9 6 7 7 6 9 8 8 9 8 5 5 2 4 4 2 2 7 4 7 9 8 5 6 6
3 5 7 9 11 12 13 14 15 16 15 6 4 5 6 6 2 4 8 13 18 5 10 5 6 7 6 5 6 5 6 3 5 3 4 4 3 3 11 11 5 3 6 3 3 3 3
3 5 8 10 12 12 13 15 15 15 11 4 4 4 4 2 4 5 5 11 12 7 7 8 8 10 4 6 3 4 5 5 4 5 5 6 2 2 5 11 4 4 3 9 7 3 1
4 6 7 10 11 13 14 15 16 16 15 2 4 5 2 3 4 7 6 9 14 9 7 5 6 7 3 2 8 9 12 6 9 7 3 3 1 5 9 9 7 8 9 13 12 5 8
5 7 8 10 12 13 14 15 16 18 21 2 3 4 5 5 8 8 6 4 9 15 8 7 5 7 5 6 10 7 3 5 4 7 5 9 2 4 6 8 7 6 13 13 20 17 6
6 7 8 9 11 13 14 15 17 18 15 3 5 7 3 6 6 5 5 7 12 10 13 8 10 6 10 4 10 8 8 7 6 4 4 1 3 2 5 5 4 4 2 2 6 4 5
5 6 8 10 11 13 14 15 16 15 11 3 4 4 4 5 6 6 14 14 15 14 6 6 9 5 5 7 1 9 3 8 8 10 7 4 2 1 4 2 1 5 9 1 6 9 10
5 6 8 10 11 12 14 15 16 15 12 3 4 4 4 6 10 12 17 16 15 7 7 6 6 2 4 6 3 1 4 6 12 6 3 3 4 1 2 1 1 9 11 4 10 6 8
4 6 7 9 12 13 13 14 15 16 15 5 6 6 4 4 4 11 15 11 7 7 8 7 9 2 4 1 3 1 4 0 2 6 3 1 6 5 3 2 4 9 12 13 15 1 6
2 4 6 9 11 13 13 13 14 16 14 5 6 4 4 4 6 8 8 10 8 8 3 4 9 6 4 1 1 3 6 1 4 6 4 5 5 6 5 5 2 3 9 9 1 5 5
1 2 4 8 11 14 13 13 13 15 14 6 8 8 3 4 12 9 9 9 8 5 4 9 9 6 1 1 2 4 3 6 7 9 7 6 7 2 3 7 4 3 6 4 6 5 6
3 3 4 7 11 13 13 13 13 14 13 7 5 6 7 7 7 19 20 17 15 15 4 4 5 4 5 4 5 4 3 4 2 1 5 5 2 5 6 7 7 6 4 6 6 6 3
Wind_Direction
12 16 13 9 8 4 1 359 354 347 342 343 341 335 333 334 332 327 322 322 317 318 313 317 323 335 308 233 247 140 132 136 184 259 223 226 206 115 267 264 257 57 312 15 329 327 294
10 14 10 8 6 2 357 357 350 343 339 341 334 335 328 331 327 326 318 317 312 309 309 314 322 330 222 265 175 141 170 158 240 215 266 264 308 184 203 85 95 209 38 349 306 313 19
5 9 7 7 2 355 353 354 347 343 343 337 330 336 331 329 323 326 318 312 309 302 305 308 320 305 267 240 141 160 188 210 224 216 279 296 307 356 301 105 70 41 19 353 329 25 269
0 4 5 1 357 353 350 348 348 342 339 331 335 337 331 327 323 324 316 313 304 294 297 284 291 285 250 273 242 165 207 247 251 252 247 266 278 306 278 214 102 94 68 82 284 259 278
357 359 359 356 354 349 350 341 348 340 334 334 337 332 330 323 323 323 320 311 296 285 225 249 283 206 271 259 242 238 226 257 301 313 306 299 259 226 304 292 32 235 189 202 270 289 138
350 356 352 355 348 346 350 339 339 339 333 336 333 330 331 323 321 329 323 294 270 330 203 204 252 302 274 259 246 216 199 248 283 307 334 312 307 283 229 132 176 233 229 223 226 327 58
346 346 350 348 344 349 343 337 335 337 334 332 335 336 329 323 323 327 341 351 360 24 206 259 312 267 274 251 281 122 243 229 268 306 292 296 333 311 11 211 187 30 267 233 63 105 86
345 347 349 343 345 341 338 335 334 334 334 330 336 334 329 326 321 317 238 343 336 245 307 286 273 272 262 312 214 220 259 216 280 270 287 314 272 324 344 294 84 334 335 18 107 111 94
341 344 343 341 339 334 336 337 334 332 330 331 336 332 328 326 317 313 327 314 324 17 285 287 228 248 248 187 296 274 224 200 252 282 291 313 305 315 319 312 66 241 26 43 106 103 88
336 339 340 341 336 334 337 337 334 331 328 328 333 328 332 329 351 335 295 349 344 13 334 251 188 231 207 209 271 273 277 190 251 274 307 302 328 328 330 339 65 3 11 35 56 70 67
333 339 338 337 334 337 337 335 331 330 327 325 327 325 327 316 295 313 294 326 337 43 342 160 172 207 188 186 188 254 256 121 217 275 328 293 325 319 319 295 16 308 60 20 103 44 45
333 337 342 334 331 336 335 333 329 327 325 322 323 320 333 113 229 251 292 307 6 29 251 126 146 178 178 204 223 303 10 46 23 331 306 290 298 273 284 318 286 299 67 63 65 101 272
334 338 332 331 336 336 333 332 331 324 325 323 321 312 304 276 239 338 313 333 4 231 200 132 170 161 191 191 211 230 175 204 176 274 320 317 294 281 277 303 310 257 68 355 14 25 215
328 329 329 335 338 335 332 332 329 326 326 325 320 312 236 213 239 273 327 358 257 279 50 42 153 161 190 198 207 240 128 247 281 247 250 258 314 318 319 297 213 315 119 131 276 327 324
326 331 335 340 337 335 333 330 330 330 327 328 313 293 262 241 221 236 45 292 250 330 357 358 291 151 199 204 173 202 196 215 232 211 181 251 277 322 330 11 57 320 63 171 133 105 73
341 343 344 343 338 336 333 332 335 335 329 332 317 297 262 266 138 68 46 258 275 302 346 333 328 266 183 192 184 195 211 221 232 241 173 237 324 301 6 10 4 65 339 20 36 353 36
353 353 351 347 343 339 340 338 340 341 333 325 251 301 260 131 90 72 212 257 302 313 6 344 316 307 281 196 184 204 199 236 203 230 13 20 100 302 40 32 288 355 12 49 82 177 170
8 2 359 356 351 347 347 346 346 350 339 5 311 288 207 98 45 218 224 248 287 325 308 253 288 302 348 341 189 179 195 197 109 94 49 336 135 340 208 247 231 119 136 114 129 271 225
33 7 4 6 3 355 352 350 350 356 19 318 303 271 285 118 238 260 306 302 288 285 298 319 327 313 348 337 18 352 81 64 64 88 94 354 353 28 336 346 355 138 195 144 166 303 311
59 33 13 9 9 1 354 352 352 347 358 317 288 294 277 149 226 276 302 291 303 215 261 305 305 319 319 318 355 321 128 151 103 91 112 90 345 156 177 235 255 313 282 198 174 124 237
55 36 18 11 7 5 357 354 348 344 340 292 240 260 345 329 318 307 232 284 304 309 195 279 296 287 303 28 27 7 7 107 66 25 28 96 274 7 324 38 45 22 336 47 34 344 91
61 38 24 17 9 6 359 356 351 345 334 233 293 352 342 288 291 302 296 284 300 298 325 227 260 308 61 311 151 250 55 34 241 338 52 329 252 9 323 7 34 57 35 24 61 323 38
62 39 25 17 11 6 1 358 358 355 338 328 337 331 312 281 302 312 275 300 288 293 302 315 357 339 60 205 185 208 151 171 138 218 111 288 337 35 276 26 336 16 244 315 303 352 52
66 36 23 14 8 4 2 359 357 360 10 309 298 296 293 300 311 294 326 313 267 278 298 3 354 34 12 315 106 28 273 98 4 238 144 212 129 20 257 51 309 296 310 39 11 329 49
72 44 25 12 9 4 1 359 355 354 356 304 306 311 331 306 328 316 345 324 312 351 340 339 314 144 322 312 13 345 320 126 198 218 229 13 338 9 178 87 273 351 328 8 24 351 30
66 44 30 15 6 4 359 357 351 346 349 312 292 272 270 313 231 358 322 344 331 5 345 295 296 174 50 33 25 291 254 281 219 336 299 326 235 129 320 252 190 217 231 241 194 290 342
89 31 20 12 1 354 353 351 345 344 342 334 287 318 290 275 280 355 6 332 342 333 302 355 342 306 103 102 305 265 276 175 163 178 296 354 335 187 235 213 103 142 286 292 116 216 68
260 346 359 358 356 349 343 342 340 339 337 343 285 280 253 277 290 295 331 339 339 11 355 330 331 350 25 139 199 243 238 260 159 176 179 176 173 240 30 47 275 219 10 97 184 87 108
268 302 320 339 343 343 336 333 330 330 328 345 281 337 332 239 283 305 287 267 253 253 298 322 255 324 320 347 10 326 333 297 154 332 41 42 133 170 142 208 217 216 183 148 126 131 132